STARLINK-11298 [DTC]

Last updated on Mon Oct 21 2024 00:02:04 GMT+0000 (Coordinated Universal Time)

1 61211U 24171M 24294.58334491 -.00017092 00000+0 -13643-3 0 9994 2 61211 53.1595 146.5661 0001527 94.2364 201.4816 15.69721788 6005
UTC large
Height (km)
Speed (km/s)
/
Latitude / Longitude
Inclination (degrees)
Orbital Period (minutes)
Azimuth
Elevation
Range (km)
Doppler Factor

Next 0 passes for location: London (51.5072 / 0.1276)

Sorry there are no passes over London.